Regional Weather Roundup
Issued by NWS Upton, NY

Current Version | Previous Version | Text Only | Print | Product List | Glossary On
Versions: 1 2 3 4 5 6 7 8 9 10 11 12 13 14 15 16 17 18 19 20 21 22 23 24 25 26 27 28 29 30 31 32 33 34 35 36 37 38 39 40 41 42 43 44 45 46 47 48 49 50
148 ASUS41 KOKX 221508 RWROKX REGIONAL WEATHER ROUNDUP NATIONAL WEATHER SERVICE NEW YORK NY 1100 AM EDT SUN OCT 22 2017 NOTE: "FAIR" INDICATES FEW OR NO CLOUDS BELOW 12,000 FEET WITH NO SIGNIFICANT WEATHER AND/OR OBSTRUCTIONS TO VISIBILITY. NYZ071-072-176-178-NJZ106-104-221600- NEW YORK CITY METRO AREA CITY SKY/WX TMP DP RH WIND PRES REMARKS Central Park SUNNY 69 52 54 CALM 30.43S Bronx Bot Gard N/A 70 50 49 E6 30.43S LaGuardia APRT PTSUNNY 70 48 45 CALM 30.40F Kennedy INTL PTSUNNY 69 53 56 S3 30.42F Breezy Point N/A 64 N/A N/A S2 N/A Newark/Liberty PTSUNNY 68 44 42 E5 30.40F Teterboro SUNNY 67 46 47 CALM 30.40S $$ NYZ177-179-078>081-221600- LONG ISLAND NEW YORK CITY SKY/WX TMP DP RH WIND PRES REMARKS Jones Beach N/A 66 N/A N/A S2 N/A Matinecock PT N/A 63 N/A N/A NE6 N/A Farmingdale SUNNY 69 51 52 SE3 30.42S MacArthur/ISP PTSUNNY 70 49 47 CALM 30.41F Shirley SUNNY 71 54 54 CALM 30.42F Mt Sinai Harb N/A N/A N/A N/A NE2 N/A Westhampton MOSUNNY 70 51 51 CALM 30.43F East Hampton FAIR 70 57 63 CALM 30.41F Montauk N/A 69 54 58 CALM 30.43S $$ NYZ052-065-067-221600- HUDSON VALLEY CITY SKY/WX TMP DP RH WIND PRES REMARKS White Plains SUNNY 69 45 41 SE6 30.41S Larchmont Harb N/A 63 N/A N/A NE1 N/A Croton On Huds N/A 59 N/A N/A MISG N/A Newburgh MOSUNNY 64 48 55 CALM 30.41F Montgomery SUNNY 64 48 56 S5 30.39F Poughkeepsie SUNNY 61 48 62 CALM 30.40S Albany MOSUNNY 57 47 69 S5 30.40F $$ NJZ001-105-106-008-010-013-015-019>022-104-221600- NEW JERSEY CITY SKY/WX TMP DP RH WIND PRES REMARKS Newark/Liberty PTSUNNY 68 44 42 E5 30.40F Teterboro SUNNY 67 46 47 CALM 30.40S Caldwell SUNNY 64 51 62 CALM 30.41F Somerville SUNNY 64 50 60 CALM 30.39F Linden FAIR 67 46 46 CALM 30.41S Perth Amboy N/A 61 N/A N/A MISG N/A Sussex SUNNY 63 52 67 CALM 30.40F Andover N/A 67 53 61 CALM 30.40F Trenton SUNNY 66 52 60 CALM 30.41S Millville PTSUNNY 66 63 90 S5 30.42S Atlantic City MOSUNNY 69 59 70 S6 30.42S Wrightstown SUNNY 63 62 99 CALM 30.39S Toms River N/A 66 54 65 SW5 30.42F Belmar SUNNY 67 54 63 S5 30.42F $$ PAZ047>061-062-071-221600- EASTERN PENNSYLVANIA CITY SKY/WX TMP DP RH WIND PRES REMARKS Philadelphia PTSUNNY 63 55 75 E3 30.42S Allentown SUNNY 62 48 60 NE3 30.41S Scranton SUNNY 63 46 54 CALM 30.39S $$ CTZ002-004>006-009-010-012-RIZ004-006-007-MAZ004-011-015-221600- SOUTHERN NEW ENGLAND IN CT CITY SKY/WX TMP DP RH WIND PRES REMARKS Bradley INTL PTSUNNY 60 48 64 CALM 30.42F Hartford MOSUNNY 58 49 72 CALM 30.42F Danbury SUNNY 65 49 56 CALM 30.42F Wtrbury/Oxford CLOUDY 70 48 45 CALM 30.43S Norwalk Harbor N/A 61 N/A N/A MISG N/A Bridgeport MOSUNNY 65 48 54 E3 30.41F Meriden MOSUNNY 62 49 62 CALM 30.42F New Haven MOSUNNY 66 51 58 CALM 30.41F Chester FAIR 72 50 46 CALM 30.42S Groton MOSUNNY 65 54 67 S5 30.41F Wilimantic SUNNY 64 49 57 CALM 30.42F IN RI CITY SKY/WX TMP DP RH WIND PRES REMARKS Providence SUNNY 71 49 45 CALM 30.41F Block Island SUNNY 69 59 70 W7 30.42F Westerly SUNNY 69 49 48 VRB3 30.42F IN MA CITY SKY/WX TMP DP RH WIND PRES REMARKS Boston MOSUNNY 65 49 56 E5 30.41S Worcester SUNNY 72 32 23 SE6 30.42S Westfield MOSUNNY 61 48 62 CALM 30.41F Provincetown MOSUNNY 66 53 63 W3 30.42S Nantucket SUNNY 65 63 93 SW9 30.42S $$ ANZ330-335-338-340-345-350-353-355-221600- COASTAL MARINE OBSERVATIONS STATION/POSITION TIME SKY/WX TEMP WIND PRES VSBY WAVE AIR SEA DIR/SP/G HT/PER (UTC) (F) (DEG/KT/KT) (MB) (MI) (FT/S) NY HARB ENTRANCE 1350 64 65 220/ 4/ 4 1029.4 2/ 9 20 S FIRE ISLAND 1350 64 64 180/ 4/ 4 1030.2 2/ 9 GREAT SOUTH BAY 1430 65 62 CALM N/A 15 E BARNEGAT LI NOT AVBL HUDSON CANYON 1350 64 64 100/ 4/ 4 1029.9 2/ 8 KINGS POINT 1436 64 65 10/ 2/ 3 1030.5 EXECUTION ROCKS 1430 67 80/ 2/ 4 N/A WESTERN LI SOUND 1419 63 100/ 4/ 6 N/A 0 CENTRAL LI SOUND NOT AVBL EASTERN LI SOUND NOT AVBL ROBBINS REEF 1448 63 CALM / 2 1030.3 $$ >>>>>>>>>>>>>>>>>>>>>>>>>>>> KEY <<<<<<<<<<<<<<<<<<<<<<<<<<< > < > SKY/WX - Sky Condition/Present Weather < > TMP - Temperature in Fahrenheit < > DP - Dew Point in Fahrenheit < > RH - Relative Humidity in Percent < > WIND - Direction (from) and Speed in MPH < > PRES - Mean Sea Level Pressure (inches of Hg) < > WCI - Wind Chill Index < > VSB - VISIBILITY IN MILES < > HX - HEAT INDEX < > TC - TEMPERATURE IN CELSIUS < > VRB - VARIABLE WIND DIRECTION < > < >>>>>>>>>>>>>>>>>>>>>>>>>>>> KEY <<<<<<<<<<<<<<<<<<<<<<<<<<<

USA.gov is the U.S. government's official web portal to all federal, state and local government web resources and services.